Time,TemperatureF,DewpointF,PressureIn,WindDirection,WindDirectionDegrees,WindSpeedMPH,WindSpeedGustMPH,Humidity,HourlyPrecipIn,Conditions,Clouds,dailyrainin,SoftwareType,DateUTC
2014-04-21 00:01:00,51.1,29.4,30.26,SSW,199,0.0,9.0,43,0.00,,,0.00,VWS V14.01,2014-04-21 04:01:00,
2014-04-21 00:06:00,50.7,29.0,30.26,WNW,289,3.0,3.0,43,0.00,,,0.00,VWS V14.01,2014-04-21 04:06:00,
2014-04-21 00:11:00,50.5,28.9,30.26,SW,223,3.0,3.0,43,0.00,,,0.00,VWS V14.01,2014-04-21 04:11:00,
2014-04-21 00:16:00,50.3,28.7,30.26,SW,234,2.0,4.0,43,0.00,,,0.00,VWS V14.01,2014-04-21 04:16:00,
2014-04-21 00:21:00,50.0,29.0,30.26,SW,234,0.0,4.0,44,0.00,,,0.00,VWS V14.01,2014-04-21 04:21:00,
2014-04-21 00:26:00,49.7,28.1,30.25,North,350,2.0,4.0,43,0.00,,,0.00,VWS V14.01,2014-04-21 04:26:00,
2014-04-21 00:31:00,49.4,28.4,30.25,SSW,213,5.0,5.0,44,0.00,,,0.00,VWS V14.01,2014-04-21 04:31:00,
2014-04-21 00:36:00,49.3,27.8,30.25,SSW,213,0.0,5.0,43,0.00,,,0.00,VWS V14.01,2014-04-21 04:36:00,
2014-04-21 00:41:00,49.0,28.0,30.25,SSE,147,1.0,5.0,44,0.00,,,0.00,VWS V14.01,2014-04-21 04:41:00,
2014-04-21 00:46:00,48.7,27.8,30.25,SW,214,0.0,5.0,44,0.00,,,0.00,VWS V14.01,2014-04-21 04:46:00,
2014-04-21 00:51:00,48.5,28.1,30.24,SW,215,2.0,5.0,45,0.00,,,0.00,VWS V14.01,2014-04-21 04:51:00,
2014-04-21 00:56:00,48.4,28.0,30.24,SE,139,1.0,5.0,45,0.00,,,0.00,VWS V14.01,2014-04-21 04:56:00,
2014-04-21 01:01:00,48.3,28.0,30.24,SSW,204,0.0,5.0,45,0.00,,,0.00,VWS V14.01,2014-04-21 05:01:00,
2014-04-21 01:06:00,48.2,28.4,30.23,WNW,287,2.0,4.0,46,0.00,,,0.00,VWS V14.01,2014-04-21 05:06:00,
2014-04-21 01:11:00,48.1,28.3,30.23,West,271,0.0,4.0,46,0.00,,,0.00,VWS V14.01,2014-04-21 05:11:00,
2014-04-21 01:16:00,48.0,28.2,30.23,SE,145,1.0,11.0,46,0.00,,,0.00,VWS V14.01,2014-04-21 05:16:00,
2014-04-21 01:21:00,47.9,28.7,30.24,WSW,252,0.0,11.0,47,0.00,,,0.00,VWS V14.01,2014-04-21 05:21:00,
2014-04-21 01:26:00,47.7,29.0,30.24,SW,221,2.0,11.0,48,0.00,,,0.00,VWS V14.01,2014-04-21 05:26:00,
2014-04-21 01:31:00,47.6,28.9,30.24,WSW,237,0.0,11.0,48,0.00,,,0.00,VWS V14.01,2014-04-21 05:31:00,
2014-04-21 01:36:00,47.3,28.6,30.24,WSW,237,1.0,1.0,48,0.00,,,0.00,VWS V14.01,2014-04-21 05:36:00,
2014-04-21 01:41:00,47.1,28.9,30.24,WSW,237,0.0,3.0,49,0.00,,,0.00,VWS V14.01,2014-04-21 05:41:00,
2014-04-21 01:46:00,46.9,29.2,30.24,WSW,237,0.0,3.0,50,0.00,,,0.00,VWS V14.01,2014-04-21 05:46:00,
2014-04-21 01:51:00,46.7,29.1,30.24,WSW,237,0.0,3.0,50,0.00,,,0.00,VWS V14.01,2014-04-21 05:51:00,
2014-04-21 01:56:00,46.5,28.9,30.23,SW,230,0.0,4.0,50,0.00,,,0.00,VWS V14.01,2014-04-21 05:56:00,
2014-04-21 02:01:00,46.5,28.9,30.23,SW,230,0.0,4.0,50,0.00,,,0.00,VWS V14.01,2014-04-21 06:01:00,
2014-04-21 02:06:00,46.4,29.3,30.23,SW,230,0.0,1.0,51,0.00,,,0.00,VWS V14.01,2014-04-21 06:06:00,
2014-04-21 02:11:00,46.3,29.2,30.23,SW,230,0.0,1.0,51,0.00,,,0.00,VWS V14.01,2014-04-21 06:11:00,
2014-04-21 02:16:00,46.1,29.5,30.23,SW,230,0.0,1.0,52,0.00,,,0.00,VWS V14.01,2014-04-21 06:16:00,
2014-04-21 02:21:00,46.0,29.4,30.23,SW,230,0.0,1.0,52,0.00,,,0.00,VWS V14.01,2014-04-21 06:21:00,
2014-04-21 02:26:00,45.9,29.3,30.23,SW,230,0.0,2.0,52,0.00,,,0.00,VWS V14.01,2014-04-21 06:26:00,
2014-04-21 02:31:00,45.7,29.6,30.22,SW,230,0.0,2.0,53,0.00,,,0.00,VWS V14.01,2014-04-21 06:31:00,
2014-04-21 02:36:00,45.6,29.9,30.22,SW,230,1.0,2.0,54,0.00,,,0.00,VWS V14.01,2014-04-21 06:36:00,
2014-04-21 02:41:00,45.5,29.8,30.22,SW,230,0.0,2.0,54,0.00,,,0.00,VWS V14.01,2014-04-21 06:41:00,
2014-04-21 02:46:00,45.2,30.0,30.22,SW,230,0.0,2.0,55,0.00,,,0.00,VWS V14.01,2014-04-21 06:46:00,
2014-04-21 02:51:00,45.1,29.9,30.22,SW,230,0.0,2.0,55,0.00,,,0.00,VWS V14.01,2014-04-21 06:51:00,
2014-04-21 02:56:00,45.0,30.3,30.21,SW,230,0.0,2.0,56,0.00,,,0.00,VWS V14.01,2014-04-21 06:56:00,
2014-04-21 03:01:00,44.8,30.1,30.20,WSW,240,0.0,3.0,56,0.00,,,0.00,VWS V14.01,2014-04-21 07:01:00,
2014-04-21 03:06:00,44.5,30.2,30.20,SW,236,1.0,1.0,57,0.00,,,0.00,VWS V14.01,2014-04-21 07:06:00,
2014-04-21 03:11:00,44.3,30.5,30.20,SW,236,1.0,2.0,58,0.00,,,0.00,VWS V14.01,2014-04-21 07:11:00,
2014-04-21 03:16:00,44.2,30.4,30.20,SW,236,0.0,2.0,58,0.00,,,0.00,VWS V14.01,2014-04-21 07:16:00,
2014-04-21 03:21:00,44.1,30.7,30.20,SW,236,0.0,3.0,59,0.00,,,0.00,VWS V14.01,2014-04-21 07:21:00,
2014-04-21 03:26:00,44.0,30.6,30.20,SW,236,1.0,3.0,59,0.00,,,0.00,VWS V14.01,2014-04-21 07:26:00,
2014-04-21 03:31:00,43.8,30.8,30.20,SW,227,2.0,3.0,60,0.00,,,0.00,VWS V14.01,2014-04-21 07:31:00,
2014-04-21 03:36:00,43.8,30.8,30.20,SW,227,1.0,2.0,60,0.00,,,0.00,VWS V14.01,2014-04-21 07:36:00,
2014-04-21 03:41:00,43.7,30.7,30.20,SW,227,0.0,2.0,60,0.00,,,0.00,VWS V14.01,2014-04-21 07:41:00,
2014-04-21 03:46:00,43.6,30.6,30.20,SW,227,0.0,2.0,60,0.00,,,0.00,VWS V14.01,2014-04-21 07:46:00,
2014-04-21 03:51:00,43.5,30.5,30.20,SW,227,0.0,2.0,60,0.00,,,0.00,VWS V14.01,2014-04-21 07:51:00,
2014-04-21 03:56:00,43.4,30.9,30.20,SW,227,0.0,2.0,61,0.00,,,0.00,VWS V14.01,2014-04-21 07:56:00,
2014-04-21 04:01:00,43.3,30.8,30.20,SW,227,0.0,2.0,61,0.00,,,0.00,VWS V14.01,2014-04-21 08:01:00,
2014-04-21 04:06:00,43.0,30.9,30.20,SW,227,0.0,0.0,62,0.00,,,0.00,VWS V14.01,2014-04-21 08:06:00,
2014-04-21 04:11:00,42.8,30.7,30.20,SW,227,0.0,0.0,62,0.00,,,0.00,VWS V14.01,2014-04-21 08:11:00,
2014-04-21 04:16:00,42.5,30.8,30.19,SW,227,0.0,0.0,63,0.00,,,0.00,VWS V14.01,2014-04-21 08:16:00,
2014-04-21 04:21:00,42.2,30.5,30.19,SW,227,0.0,0.0,63,0.00,,,0.00,VWS V14.01,2014-04-21 08:21:00,
2014-04-21 04:26:00,41.9,31.0,30.19,SW,227,0.0,0.0,65,0.00,,,0.00,VWS V14.01,2014-04-21 08:26:00,
2014-04-21 04:31:00,41.6,31.5,30.19,SW,227,0.0,0.0,67,0.00,,,0.00,VWS V14.01,2014-04-21 08:31:00,
2014-04-21 04:36:00,41.4,31.6,30.19,SW,227,0.0,0.0,68,0.00,,,0.00,VWS V14.01,2014-04-21 08:36:00,
2014-04-21 04:41:00,41.1,31.7,30.19,SW,227,0.0,0.0,69,0.00,,,0.00,VWS V14.01,2014-04-21 08:41:00,
2014-04-21 04:46:00,40.8,31.8,30.19,SW,227,0.0,1.0,70,0.00,,,0.00,VWS V14.01,2014-04-21 08:46:00,
2014-04-21 04:51:00,40.3,32.0,30.19,SW,227,0.0,1.0,72,0.00,,,0.00,VWS V14.01,2014-04-21 08:51:00,
2014-04-21 04:56:00,39.9,31.6,30.19,SW,227,0.0,1.0,72,0.00,,,0.00,VWS V14.01,2014-04-21 08:56:00,
2014-04-21 05:01:00,39.6,32.3,30.19,SW,227,0.0,2.0,75,0.00,,,0.00,VWS V14.01,2014-04-21 09:01:00,
2014-04-21 05:06:00,39.3,32.0,30.19,SW,227,0.0,1.0,75,0.00,,,0.00,VWS V14.01,2014-04-21 09:06:00,
2014-04-21 05:11:00,39.1,31.9,30.19,SW,227,0.0,1.0,75,0.00,,,0.00,VWS V14.01,2014-04-21 09:11:00,
2014-04-21 05:16:00,38.9,32.0,30.19,SW,227,0.0,1.0,76,0.00,,,0.00,VWS V14.01,2014-04-21 09:16:00,
2014-04-21 05:21:00,38.6,31.7,30.18,SW,227,0.0,1.0,76,0.00,,,0.00,VWS V14.01,2014-04-21 09:21:00,
2014-04-21 05:26:00,38.4,31.8,30.19,SW,227,0.0,1.0,77,0.00,,,0.00,VWS V14.01,2014-04-21 09:26:00,
2014-04-21 05:31:00,37.9,32.0,30.19,SW,227,0.0,1.0,79,0.00,,,0.00,VWS V14.01,2014-04-21 09:31:00,
2014-04-21 05:36:00,37.5,31.6,30.19,SW,227,0.0,0.0,79,0.00,,,0.00,VWS V14.01,2014-04-21 09:36:00,
2014-04-21 05:41:00,37.2,31.6,30.19,SW,227,0.0,0.0,80,0.00,,,0.00,VWS V14.01,2014-04-21 09:41:00,
2014-04-21 05:46:00,36.9,31.3,30.19,SW,227,0.0,0.0,80,0.00,,,0.00,VWS V14.01,2014-04-21 09:46:00,
2014-04-21 05:51:00,36.8,31.2,30.19,SW,227,0.0,1.0,80,0.00,,,0.00,VWS V14.01,2014-04-21 09:51:00,
2014-04-21 05:56:00,36.6,31.0,30.19,SW,227,0.0,1.0,80,0.00,,,0.00,VWS V14.01,2014-04-21 09:56:00,
2014-04-21 06:01:00,36.5,31.2,30.19,SW,227,0.0,1.0,81,0.00,,,0.00,VWS V14.01,2014-04-21 10:01:00,
2014-04-21 06:06:00,36.0,30.8,30.19,SW,227,0.0,0.0,81,0.00,,,0.00,VWS V14.01,2014-04-21 10:06:00,